RH
7 11 14 36 62 89 70 51 52 60 67 62 77 91 71 78 68 72 93 95 95 52 23 18 13 14 8
5 9 24 85 43 73 74 62 81 96 94 68 98 96 86 88 87 97 97 97 96 65 44 33 14 10 9
6 7 10 20 68 98 74 54 84 54 92 97 98 96 96 86 83 96 96 89 95 94 82 50 32 16 10
6 14 15 14 26 96 99 64 81 56 89 98 82 93 96 95 89 85 99 96 96 93 93 55 39 26 22
6 8 99 68 22 30 70 94 78 95 57 69 72 94 75 93 92 63 68 93 97 92 93 66 39 30 24
4 10 56 100 95 50 33 59 63 77 82 80 100 100 99 97 94 96 75 96 86 94 94 82 59 42 25
3 8 14 58 99 96 100 97 69 63 47 89 60 60 96 95 96 96 93 97 97 98 95 91 57 62 90
4 6 10 18 22 39 56 56 98 97 51 40 49 83 98 98 97 97 100 97 96 95 97 97 90 63 88
7 6 11 18 100 95 40 33 83 78 61 80 97 98 98 94 97 98 100 98 96 95 90 97 97 87 75
10 8 11 95 90 94 100 91 48 59 55 84 99 97 98 94 99 99 100 98 98 98 98 98 98 93 97
12 10 10 84 100 100 81 100 84 88 94 90 98 94 96 91 93 97 99 100 100 93 99 99 99 94 75
13 11 10 19 100 100 100 100 98 100 100 93 99 96 97 79 75 79 96 98 100 95 99 100 99 99 88
13 12 10 11 12 26 88 100 100 100 100 91 98 98 97 80 57 74 56 87 86 94 95 87 96 97 93
16 12 11 10 100 55 26 68 99 96 99 94 93 99 100 100 65 46 47 70 89 92 98 99 100 97 94
17 13 10 9 16 84 55 28 93 100 100 99 98 99 99 99 95 78 60 71 98 95 97 96 94 95 94
15 14 11 9 9 10 93 68 95 94 95 95 96 100 100 100 88 80 57 76 98 97 98 98 87 96 96
16 13 11 8 8 9 60 93 96 100 94 99 100 100 94 82 100 97 100 100 98 98 98 96 93 77 88
Wind_Speed
107 103 98 99 96 84 80 79 73 70 68 71 66 76 76 77 70 78 68 62 60 55 51 48 48 50 48
111 106 100 86 96 85 89 80 70 66 67 61 69 74 83 76 69 65 59 58 61 57 51 49 48 48 49
109 109 105 100 82 69 82 91 79 75 67 71 65 75 79 79 74 63 74 67 69 56 52 54 50 48 46
110 108 105 105 103 78 67 85 85 80 75 65 73 72 66 86 77 76 61 63 55 54 60 55 51 50 48
109 111 98 97 104 104 97 79 83 82 81 70 63 60 60 71 86 77 81 76 60 58 55 53 52 52 51
107 110 109 95 91 91 104 101 89 88 84 79 70 69 73 74 80 84 73 63 69 67 57 58 57 55 55
101 107 110 114 103 92 83 77 79 92 84 74 76 73 74 67 71 73 76 73 68 60 64 61 57 54 53
90 98 107 109 109 109 104 93 74 75 82 79 76 80 77 73 70 68 69 67 62 68 63 56 55 57 56
81 91 100 99 92 101 97 99 101 81 84 79 79 64 76 71 70 71 69 67 66 64 66 63 59 63 62
74 86 97 103 98 98 97 93 94 97 95 85 81 73 71 74 68 67 67 70 67 66 66 66 67 66 63
66 81 94 105 112 99 98 90 90 93 93 94 82 64 74 71 61 61 58 67 63 61 65 64 63 66 65
60 74 89 105 108 106 112 87 104 100 97 101 75 81 81 72 67 64 59 63 61 63 62 62 62 62 63
55 66 82 93 104 115 117 93 93 101 98 88 79 87 83 78 73 69 72 64 66 64 61 63 65 64 65
53 59 73 90 104 105 114 104 97 92 86 92 94 80 73 78 79 75 71 67 69 69 63 61 61 67 66
52 55 66 82 96 105 102 105 105 95 86 84 81 87 78 71 79 81 78 74 73 69 62 59 59 62 63
48 53 59 73 87 96 111 103 109 102 99 90 81 74 69 74 85 87 84 83 75 69 65 62 62 61 60
44 49 55 65 81 93 110 122 108 106 104 94 85 81 79 69 68 85 82 79 78 75 73 70 66 59 59
Wind_Direction
219 222 224 225 226 221 223 226 229 230 233 241 243 227 220 228 234 234 230 232 233 228 232 236 237 236 238
216 218 218 223 226 229 225 225 221 223 226 236 230 235 226 223 224 225 225 226 235 226 229 235 238 236 236
213 215 218 219 216 217 223 225 217 223 227 226 229 232 232 222 224 234 225 236 233 226 238 229 236 237 238
212 213 216 217 215 210 205 221 215 219 223 223 239 243 238 227 222 223 220 217 228 238 240 225 235 238 238
211 211 206 216 215 219 218 217 217 219 222 229 233 232 234 235 223 222 229 242 234 240 224 228 231 240 239
214 209 206 204 211 217 222 223 223 222 222 222 223 230 230 236 231 227 227 225 233 234 233 239 231 237 239
219 210 210 207 204 204 207 216 224 222 223 220 224 231 230 231 229 226 226 233 238 225 247 232 232 235 241
218 214 212 212 212 213 214 209 210 211 216 223 226 229 227 224 226 225 224 228 233 232 227 233 233 238 234
215 213 212 212 203 212 214 213 214 214 217 218 216 221 220 221 212 220 223 226 232 230 234 235 236 233 236
217 212 212 204 206 203 199 208 217 215 217 214 220 214 214 210 215 220 223 227 232 234 233 237 239 229 232
221 211 210 204 200 201 205 206 206 211 215 217 207 217 218 213 216 216 224 226 229 230 234 235 234 230 233
223 215 209 209 209 200 202 207 204 209 212 216 221 217 214 221 219 220 224 223 226 228 233 237 234 237 236
223 219 213 211 212 211 211 209 213 215 217 218 218 222 222 227 226 225 228 226 225 230 232 231 232 232 239
224 220 216 211 205 210 213 213 211 215 216 219 223 219 217 219 224 226 229 230 221 230 229 229 232 232 235
225 222 219 214 212 211 209 209 206 205 202 201 207 210 211 215 220 224 225 227 221 225 225 228 232 233 231
227 224 222 218 214 212 205 204 201 201 202 201 205 211 212 213 221 224 221 224 220 222 228 231 235 235 229
231 226 224 222 216 213 209 204 210 198 202 204 211 212 211 208 211 217 221 219 222 227 228 230 231 233 238